User: anonymous   Login
Location: Unspecified
(0.0000°N, 0.0000°E)
Time: 23:03:39
(UTC+00:00)
Language:

KUIPER-00050 - Orbit

View from above orbital plane
View from above orbital plane
View from above satellite
View from above satellite

Ground track
Ground track

The orbit is defined by the following mean orbital elements,

1 64510U          26145.53727073 +.00000000 +00000-0 +95421-4 0 00006
2 64510  51.8990 230.7353 0000526 109.8486 250.2533 14.79934000    09
Epoch (UTC): 25 May 2026 12:53:40
Eccentricity: 0.0000526
inclination: 51.8990°
perigee height: 629 km
apogee height: 630 km
right ascension of ascending node: 230.7353°
argument of perigee: 109.8486°
revolutions per day: 14.79934000
mean anomaly at epoch: 250.2533°

The dashed part of the orbit path shows where the satellite is in the earth's shadow,  

DLR